EDT,Max TemperatureF,Mean TemperatureF,Min TemperatureF,Max Dew PointF,MeanDew PointF,Min DewpointF,Max Humidity, Mean Humidity, Min Humidity, Max Sea Level PressureIn, Mean Sea Level PressureIn, Min Sea Level PressureIn, Max VisibilityMiles, Mean VisibilityMiles, Min VisibilityMiles, Max Wind SpeedMPH, Mean Wind SpeedMPH, Max Gust SpeedMPH,PrecipitationIn, CloudCover, Events, WindDirDegrees
2013-4-1,73,62,51,55,45,34,97,63,24,29.94,29.86,29.82,10,9,2,16,2,23,0.04,5,Rain,294
2013-4-2,61,47,33,39,31,23,93,55,23,30.17,30.09,29.95,10,10,7,17,5,24,0.00,0,,328
2013-4-3,61,52,42,37,24,16,83,40,19,30.30,30.23,30.13,10,10,10,12,4,20,0.00,3,,6
2013-4-4,45,42,40,41,35,26,97,77,52,30.34,30.19,29.92,10,9,3,13,5,21,0.77,5,Rain,35
2013-4-5,62,50,39,49,43,38,97,83,52,30.02,29.94,29.89,10,9,3,10,5,16,0.00,5,,325
2013-4-6,66,50,34,41,33,25,97,60,23,30.27,30.18,30.02,10,10,7,10,2,22,0.00,0,,38
2013-4-7,73,53,33,49,39,32,95,60,28,30.29,30.20,30.11,10,10,5,13,2,18,0.00,0,,189
2013-4-8,79,62,46,56,50,45,95,64,34,30.19,30.12,30.06,10,10,7,14,4,20,0.00,1,,204
2013-4-9,85,68,52,59,55,51,96,62,32,30.19,30.13,30.07,10,10,2,15,5,18,0.00,1,,212
2013-4-10,86,70,55,60,57,53,93,60,32,30.12,30.04,29.96,10,10,10,17,5,22,0.00,0,,201
2013-4-11,82,72,61,65,60,56,91,67,40,30.01,29.92,29.80,10,10,10,14,7,22,0.00,3,,198
2013-4-12,81,74,65,68,62,49,94,70,42,29.82,29.71,29.62,10,10,5,17,11,26,0.54,4,Rain,197
2013-4-13,75,60,46,48,41,35,89,50,23,30.01,29.92,29.78,10,10,10,12,4,16,0.00,0,,292
2013-4-14,79,60,40,51,43,35,96,57,20,30.10,30.05,30.01,10,10,7,10,2,17,0.00,0,Rain,153
2013-4-15,70,64,58,60,56,50,96,75,56,30.20,30.09,30.00,10,10,5,9,3,17,0.01,7,Rain,59
2013-4-16,77,67,56,61,58,55,95,77,47,30.30,30.24,30.20,10,9,5,7,1,,0.00,4,,75
2013-4-17,82,66,51,65,59,50,98,77,47,30.25,30.18,30.11,10,8,0,9,1,,0.00,3,Fog,207
2013-4-18,80,68,56,62,58,55,96,69,44,30.20,30.13,30.04,10,10,7,10,4,17,0.00,2,,147
2013-4-19,84,74,65,66,64,61,90,73,50,30.05,29.89,29.73,10,10,10,22,8,31,0.00,6,,177
2013-4-20,64,53,42,44,36,31,94,52,30,30.28,30.16,30.09,10,10,10,12,6,18,0.02,0,,327
2013-4-21,63,48,34,42,38,34,97,63,37,30.47,30.41,30.28,10,10,2,13,4,21,0.01,2,,51
2013-4-22,63,49,35,45,37,31,91,62,35,30.47,30.36,30.25,10,10,10,16,8,24,0.01,3,Rain,22
2013-4-23,67,57,47,53,47,45,95,77,48,30.27,30.20,30.13,10,9,5,12,6,16,0.02,4,Rain,13
2013-4-24,76,58,41,56,50,40,97,72,42,30.16,30.09,29.98,10,9,3,14,3,23,0.00,1,,202
2013-4-25,71,58,46,56,45,39,92,61,32,30.27,30.18,30.02,10,10,10,13,3,22,0.00,3,,354
2013-4-26,72,57,42,50,41,29,97,62,22,30.43,30.35,30.28,10,10,1,9,1,16,0.00,1,,31
2013-4-27,73,60,48,55,47,37,93,65,27,30.39,30.33,30.26,10,10,10,6,1,,0.00,4,,203
2013-4-28,61,57,53,56,53,48,96,87,65,30.28,30.19,30.10,10,8,2,7,1,,0.39,7,Rain,45
2013-4-29,72,64,56,63,59,55,97,87,62,30.12,30.03,29.96,10,8,1,10,2,,1.06,6,Rain,122
2013-4-30,67,61,55,61,59,54,98,88,75,30.17,30.09,30.00,10,7,0,12,3,,0.10,7,Fog-Rain,15